OPS 4682 DEB, 38403

Orbit data source: Space-Track

OPS 4682 DEB, 38403 is space debris in LEO originally from a launch on Sat, 03 Apr 1965 UTC launched from the Air Force Western Test Range (AFWTR). Debris objects in space refer to the collection of defunct objects orbiting the Earth. Examples of debris include non-operational satellites, rocket bodies, and fragments generated from explosions, collisions, or faulty payload assembly.

Loading next visibility...
Identifier
38403, 1965-027DG
Orbit
LEO
Country
Flag of USUS
Related business
Manufacturer
Unknown
Mission
Spacecraft
Bus & Motor
Unknown
Mass
Unknown
Launch date (UTC)
1965-04-03 (61 years ago)
Launch vehicle
Unknown
Launch site
Air Force Western Test Range (AFWTR)
Object type
Payload
Rocket body
Debris
Shape & HBR
Unknown shape, 0.1 m
Radar Cross Section
Medium (>0.1 m² and <1 m²)

Expand to show TLE details & history
Last TLE update: 6 hours ago

TLE from 6 hours ago
0 OPS 4682 DEB
1 38403U 65027DG  26249.61810550  .00000118  00000-0  39654-3 0  9997
2 38403  90.2534  12.6992 0025748 346.1454  13.8956 12.94381666672468
Epoch: 2026-09-06T14:50Z
TLE epoch observation values (Epoch: 2026-09-06T14:50:04.315Z)
Latitude
0.00004°
Longitude
164.47058°
Altitude
1,267.902 km
Speed
7.231 km/s
True Right ascension
00h 50m 47s
True Declination
0° 00' 00"
Sunlit
Object was in full shadow at epoch
Visualization orbit readout
Latitude
Unknown
Longitude
Unknown
Altitude
Unknown
Speed
Unknown
Apparent Right ascension
Unknown
Apparent Declination
Unknown
Sunlit
N/A
Visualization observer readout
Local Sidereal Time
13:14:36
Azimuth
Unknown
Elevation
Unknown
Doppler factor
Unknown
Orbital elements
Apogee altitude
1,301.036 km
Perigee altitude
1,261.593 km
Semi-major axis
7,659.452 km
Eccentricity
0.00257
Inclination
90.2534°
RAAN
12.6992°
Arg. of periapsis
346.1454°
True anomaly
13.96668°
Mean anomaly
13.8956°
Eccentric anomaly
13.93112°
Mean motion
3.23777 °/min
Orbital period
111.19 mins
BSTAR
0.00039654
Loading maneuver chart data...
Computing Atmospheric mass density...
Loading historical data...
Loading historical data...
Loading historical data...
Loading historical data...
Loading historical data...
Loading historical data...
Loading historical data...

Documentation

Showing up to 5 results
|